This demonstration page uses our WeatherBlox Daily Observations layout. Learn more.

Left ArrowRight Arrow

44.31136, -96.79839

Hourly Observations for August 26, 2018

Temp ( °F °C ) Dew Point ( °F °C ) Humidity (%) Winds ( mph kmh ) Pressure ( in mb ) Visibility ( mi km ) Precip ( " mm )
12:56 am 00:56 Clear 69 20.6 67 19.4 93 93 S 7 11 29.92 1013 10 16 0.00 0.00
2:56 am 02:56 Clear 72 22.2 69 20.6 91 91 S 10 17 29.86 1011 10 16 0.00 0.00
3:56 am 03:56 Mostly Cloudy 73 22.8 67 19.4 81 81 ENE 3 6 29.85 1011 9 14 0.00 0.03
4:29 am 04:29 Mostly Cloudy with Thunderstorms 72 22 66 19 83 83 SSE 9 15 29.74 1007 10 16 0.01 0.25
4:44 am 04:44 Mostly Clear with Light Rain 72 22 70 21 94 94 S 20 31 29.77 1008 10 16 0.01 0.25
4:56 am 04:56 Clear 72 22.2 69 20.6 91 91 SSE 15 24 29.81 1009 10 16 0.01 0.25
5:56 am 05:56 Clear 71 21.7 69 20.6 94 94 SSE 16 26 29.83 1010 8 13 0.00 0.00
6:56 am 06:56 Sunny with Mist and Fog 69 20.6 68 20 96 96 SE 8 13 29.81 1010 4 6 0.00 0.00
7:56 am 07:56 Sunny with Mist and Fog 70 21.1 68 20 93 93 E 7 11 29.81 1010 4 6 0.00 0.00
8:07 am 08:07 Partly Cloudy with Mist and Fog 70 21 70 21 100 100 ENE 5 7 29.74 1007 4 6 0.00 0.00
8:36 am 08:36 Mostly Cloudy with Mist and Fog 72 22 70 21 94 94 VRB 5 7 29.77 1008 5 8 0.00 0.00
8:56 am 08:56 Mostly Cloudy with Mist and Fog 72 22.2 69 20.6 91 91 SE 10 17 29.82 1010 6 10 0.00 0.00
9:46 am 09:46 Partly Cloudy with Mist and Fog 72 22 70 21 94 94 SSE 9 15 29.74 1007 6 10 0.00 0.00
9:56 am 09:56 Partly Cloudy 73 22.8 70 21.1 90 90 SSE 9 15 29.81 1009 7 11 0.00 0.00
10:47 am 10:47 Mostly Cloudy 79 26 73 23 84 84 SSE 10 17 29.71 1006 10 16 0.00 0.00
10:56 am 10:56 Mostly Cloudy 78 25.6 73 22.8 85 85 S 15 24 29.81 1009 10 16 0.00 0.00
11:56 am 11:56 Cloudy 81 27.2 74 23.3 79 79 VRB 7 11 29.78 1009 10 16 0.00 0.00
12:21 pm 12:21 Mostly Cloudy 81 27 73 23 79 79 S 13 20 29.68 1005 10 16 0.00 0.00
12:56 pm 12:56 Mostly Cloudy 83 28.3 74 23.3 74 74 S 15 24 29.77 1008 10 16 0.00 0.00
1:05 pm 13:05 Mostly Sunny 82 28 73 23 74 74 S 18 30 29.65 1004 10 16 0.00 0.00
1:56 pm 13:56 Sunny 85 29.4 69 20.6 59 59 S 20 31 29.74 1007 10 16 0.00 0.00
2:56 pm 14:56 Sunny 84 28.9 71 21.7 65 65 S 22 35 29.72 1006 10 16 0.00 0.00
3:56 pm 15:56 undefined N/A N/A N/A undefined N/A N/A N/A 0.00 0.00
4:56 pm 16:56 undefined N/A N/A N/A undefined N/A N/A N/A 0.00 0.00
5:56 pm 17:56 undefined N/A N/A N/A undefined N/A N/A N/A 0.00 0.00
6:56 pm 18:56 undefined N/A N/A N/A undefined N/A N/A N/A 0.00 0.00
7:56 pm 19:56 undefined N/A N/A N/A undefined N/A N/A N/A 0.00 0.00
8:56 pm 20:56 undefined N/A N/A N/A undefined N/A N/A N/A 0.00 0.00
9:56 pm 21:56 undefined N/A N/A N/A undefined N/A N/A N/A 0.00 0.00
10:56 pm 22:56 undefined N/A N/A N/A undefined N/A N/A N/A 0.00 0.00
11:56 pm 23:56 undefined N/A N/A N/A undefined N/A N/A N/A 0.00 0.00

Powered by AerisWeather